Regional Weather Roundup
Issued by NWS Albany, NY

Home | Current Version | Previous Version | Text Only | Print | Product List | Glossary On
Versions: 1 2 3 4 5 6 7 8 9 10 11 12 13 14 15 16 17 18 19 20 21 22 23 24 25 26 27
000
ASUS41 KALY 300310
RWRALY

NEW YORK STATE HOURLY WEATHER ROUNDUP
NATIONAL WEATHER SERVICE ALBANY NY
1100 PM EDT MON AUG 29 2016

NOTE: "FAIR" INDICATES FEW OR NO CLOUDS BELOW 12,000 FEET WITH NO
SIGNIFICANT WEATHER AND/OR NO OBSTRUCTIONS TO VISIBILITY.

NYZ032-033-038>043-046>054-057>066-NYZ062>081-082-084-300400-
EAST


CITY           SKY/WX    TMP DP  RH WIND       PRES   REMARKS
ALBANY         MOCLDY    67  56  67 N5        30.18S
GLENS FALLS    CLEAR     62  55  77 CALM      30.19R
POUGHKEEPSIE   CLEAR     64  58  80 CALM      30.14S
NEWBURGH       CLEAR     68  61  77 N6        30.16F
MONTGOMERY     CLEAR     62  59  90 S3        30.16S
WHITE PLAINS   CLEAR     70  56  61 NW6       30.14S
ISLIP          CLEAR     76  60  57 N8        30.12S
NEW YORK CITY  PTCLDY    80  57  45 N12       30.12S
CENTRAL PARK   CLEAR     79  55  43 NE10      30.16R
$$

NYZ005>009-017-018-044>046-055-056-300400-
CENTRAL


CITY           SKY/WX    TMP DP  RH WIND       PRES   REMARKS
FULTON         PTCLDY    59  57  93 CALM      30.20S
SYRACUSE       PTCLDY    64  58  80 W3        30.20R
ROME           CLEAR     62  58  86 CALM      30.21S
ELMIRA         CLEAR     62  57  83 CALM      30.22S
BINGHAMTON     CLEAR     63  55  75 NW3       30.23S
MONTICELLO     CLEAR     63  55  77 NW6       30.21F
$$

NYZ026>034-041>043-087-300400-
NORTH


CITY           SKY/WX    TMP DP  RH WIND       PRES   REMARKS
WATERTOWN      CLEAR     55  53  93 SE3       30.20R
FORT DRUM      NOT AVBL
MASSENA        FOG       57  55  93 CALM      30.19F VSB 1/2
SARANAC LAKE   CLEAR     49  46  90 CALM      30.23S
PLATTSBURGH    CLEAR     59  55  87 CALM      30.18S
$$

NYZ001>004-010>016-019>021-085-300400-
WEST


CITY           SKY/WX    TMP DP  RH WIND       PRES   REMARKS
NIAGARA FALLS  PTCLDY    71  57  61 CALM      30.21S
BUFFALO        PTCLDY    68  58  70 SE5       30.21S
DUNKIRK        CLEAR     62  59  90 S5        30.22S
JAMESTOWN      CLEAR     64  55  72 N3        30.25F
WELLSVILLE     CLEAR     65  59  81 N5        30.28S
ROCHESTER      CLEAR     63  59  87 W3        30.22S
PENN YAN       CLEAR     57  54  89 S5        30.23S
$$

             KEY
       WCI = WIND CHILL INDEX
       VSB = VISIBILITY
       HX  = HEAT INDEX
$$




USA.gov is the U.S. government's official web portal to all federal, state and local government web resources and services.